Tracking 22836 objects as of 18-Apr-2021
HD Live streaming from Space Station
objects crossing your sky now

STRV 1A

Track STRV 1A now!
10-day predictions
STRV 1A is classified as:


NORAD ID: 23125
Int'l Code: 1994-034B
Perigee: 260.0 km
Apogee: 25,568.1 km
Inclination: 7.5 °
Period: 444.2 minutes
Semi major axis: 19285 km
RCS: 0.2699 m2 (medium)
Launch date: June 17, 1994
Source: United Kingdom (UK)
Launch site: FRENCH GUIANA (FRGUI)
aabbcc
Your satellite tracking list
Your tracking list is empty




NASA's NSSDC Master Catalog

Two Line Element Set (TLE):
1 23125U 94034B   21107.17617410  .00002052  00000-0  36661-3 0  9995
2 23125   7.5207  42.7398 6561562 307.3256   9.3802  3.24169231271368
Source of the keplerian elements: AFSPC